Wind_Speed
28 29 25 22 21 19 16 14 11 11 11 12 12 13 13 14 14 14 14 12 12 13
25 24 24 21 18 15 12 9 8 9 10 11 12 12 11 14 15 14 13 11 12 14
19 19 19 17 14 11 8 6 6 9 11 11 10 11 13 15 13 13 11 11 13 15
18 17 14 13 11 8 5 5 8 10 11 11 12 12 14 14 13 13 11 12 15 18
18 16 14 11 7 3 3 5 8 10 10 11 13 13 15 17 12 9 11 14 19 21
23 19 15 11 7 2 2 5 6 8 10 12 13 14 16 9 8 10 13 17 20 25
27 22 18 12 8 3 1 4 5 7 10 13 14 13 8 11 11 11 14 18 23 23
28 23 17 11 7 2 2 5 7 8 11 14 15 11 14 12 11 13 17 23 27 21
26 19 16 11 6 3 2 4 6 8 10 14 16 14 6 11 14 19 20 23 23 22
18 14 11 10 7 5 3 4 6 9 12 14 13 8 11 17 18 20 19 19 20 20
21 17 14 10 8 7 7 6 8 11 13 12 13 15 16 16 18 17 16 16 17 15
15 12 10 9 9 9 9 10 12 14 15 16 15 16 16 17 16 17 17 14 13 16
12 11 10 9 9 10 12 11 12 14 14 15 17 15 16 17 15 16 15 14 14 18
13 12 11 10 12 11 12 14 14 15 15 16 14 15 16 15 18 17 18 19 19 18
Wind_Direction
125 121 122 123 114 105 98 88 72 52 36 23 10 2 2 3 6 359 3 2 1 345
124 125 124 121 117 107 96 81 55 29 14 4 355 353 352 350 351 356 1 2 350 6
133 131 127 126 120 112 99 73 38 16 6 3 0 357 347 345 348 339 355 357 345 348
137 136 132 126 119 111 93 43 18 13 7 4 356 347 342 344 338 338 340 346 350 345
157 150 146 141 135 122 55 23 18 13 9 5 357 346 338 335 332 339 349 349 344 341
167 167 165 164 163 150 18 359 8 7 7 358 354 344 334 336 344 347 346 346 342 333
173 176 168 171 167 162 316 341 352 348 344 344 344 345 345 332 328 334 340 343 338 329
174 167 163 174 164 187 307 330 324 323 332 340 348 339 331 326 329 327 331 334 333 328
165 161 161 164 163 160 328 324 320 328 335 336 340 334 330 335 334 340 332 333 332 337
153 147 138 128 119 92 30 340 337 336 338 337 337 340 315 320 316 330 324 328 333 340
126 121 115 107 88 68 49 20 350 343 339 332 325 320 319 319 316 309 308 314 328 341
95 89 73 56 49 40 17 351 341 329 317 313 316 318 314 310 306 304 303 302 308 333
69 55 60 54 30 7 356 355 344 335 325 319 311 309 308 308 304 308 303 299 298 308
46 36 27 21 15 3 353 343 337 332 325 314 310 305 305 305 301 299 301 300 299 301
Height
810 814 817 820 822 824 825 827 827 827 825 825 824 822 821 821 820 819 818 816 815 813
813 815 817 821 823 824 826 827 827 827 827 825 824 822 821 820 819 818 817 816 815 813
817 817 818 820 823 824 826 828 829 828 828 826 825 823 820 819 818 817 817 815 814 812
819 818 819 821 823 825 826 827 828 828 827 827 825 823 821 818 817 817 816 815 813 812
819 818 820 821 822 824 825 827 827 827 827 826 825 823 821 818 816 815 814 814 812 810
814 815 817 819 821 822 824 826 826 825 825 825 824 822 820 818 817 815 814 812 811 808
809 811 813 817 818 819 821 822 823 824 824 823 821 820 820 818 816 815 813 811 809 806
804 806 811 818 815 817 818 818 821 822 821 821 819 819 818 817 815 813 811 808 806 803
802 805 807 812 813 815 815 816 818 819 819 818 816 816 815 814 812 810 808 805 802 800
807 808 812 811 811 812 814 815 815 817 817 816 814 814 814 812 809 807 805 803 801 798
804 809 809 812 810 810 812 813 815 814 814 814 814 812 810 808 806 804 802 800 799 797
808 814 810 811 811 809 810 811 811 812 812 811 810 809 807 805 803 800 798 797 796 795
809 813 811 811 810 809 808 808 808 807 807 806 805 804 804 801 799 796 795 794 793 791
814 815 811 810 808 808 807 806 805 805 804 804 800 800 798 797 795 793 791 789 788 787